Regional Weather Roundup
Issued by NWS

Home | Current Version | Previous Version | Text Only | Print | Product List | Glossary Off
Versions: 1 2 3 4 5 6 7 8 9 10 11 12 13 14 15 16 17 18 19 20 21 22 23 24 25 26 27 28 29 30 31 32 33 34 35 36 37 38 39 40 41 42 43 44 45 46 47 48 49 50

000
ASUS43 KLSX 201357
RWRMO

WEATHER SUMMARY FOR MISSOURI
NATIONAL WEATHER SERVICE SPRINGFIELD MO
900 AM CDT FRI APR 20 2018

NOTE: "FAIR" INDICATES FEW OR NO CLOUDS BELOW 12,000 FEET WITH NO
       SIGNIFICANT WEATHER AND/OR OBSTRUCTIONS TO VISIBILITY.
       CURRENT SKY AND/OR WEATHER CONDITIONS ARE NOT AVAILABLE FOR
       CHILLICOTHE AND FARMINGTON.

MOZ001>031-035>038-043-044-053-054-201500-
...NORTHERN AND WESTERN MISSOURI...

CITY           SKY/WX    TMP DP  RH WIND       PRES   REMARKS
KANSAS CTY INT PTSUNNY   49  31  49 SE12      30.45S
LEE`S SUMMIT   SUNNY     47  34  60 SE7       30.46S
ST JOSEPH      MOSUNNY   48  33  56 E8        30.46S
CHILLICOTHE      N/A     45  28  51 SE8       30.50R

$$
MOZ066>068-077>081-088>096-101>105-201500-
...SOUTHWEST MISSOURI...

CITY           SKY/WX    TMP DP  RH WIND       PRES   REMARKS
SPRINGFIELD    SUNNY     49  33  54 SE7       30.43S
JOPLIN         SUNNY     49  34  56 SE15G26   30.41F

$$
MOZ032>034-039>042-045>050-055>058-069>072-201500-
...CENTRAL MISSOURI...

CITY           SKY/WX    TMP DP  RH WIND       PRES   REMARKS
COLUMBIA       NOT AVBL
JEFFERSON CITY SUNNY     44  34  67 SE5       30.50S
ROLLA          SUNNY     45  29  53 E10       30.47S
SEDALIA        CLOUDY    48  34  58 E10       30.49R
WARRENSBURG    SUNNY     45  34  65 E3        30.48R

$$
MOZ051-052-059>065-201500-
...EAST CENTRAL MISSOURI...

CITY           SKY/WX    TMP DP  RH WIND       PRES   REMARKS
ST LOUIS INTL  MOSUNNY   49  21  33 E12       30.51R

$$
MOZ072>076-082>087-097>100-106>115-201500-
...SOUTH CENTRAL AND SOUTHEAST MISSOURI...

CITY           SKY/WX    TMP DP  RH WIND       PRES   REMARKS
CAPE GIRARDEAU FAIR      48  26  42 NE12      30.47R
POPLAR BLUFF   FAIR      49  32  52 NE8       30.46S
WEST PLAINS    SUNNY     48  28  46 E12       30.45R

$$



USA.gov is the U.S. government's official web portal to all federal, state and local government web resources and services.